TimeCST,TemperatureF,Dew PointF,Humidity,Sea Level PressureIn,VisibilityMPH,Wind Direction,Wind SpeedMPH,Gust SpeedMPH,PrecipitationIn,Events,Conditions,WindDirDegrees,DateUTC
12:55 AM,39.6,37.8,93,30.08,10.0,Calm,Calm,-,N/A,,Mostly Cloudy,0,2012-11-20 06:55:00
1:55 AM,40.6,38.5,92,30.08,10.0,Calm,Calm,-,N/A,,Overcast,0,2012-11-20 07:55:00
2:39 AM,37.4,35.6,93,30.09,8.0,Calm,Calm,-,N/A,,Mostly Cloudy,0,2012-11-20 08:39:00
2:55 AM,37.8,37.0,97,30.09,8.0,Calm,Calm,-,N/A,,Overcast,0,2012-11-20 08:55:00
3:34 AM,37.4,37.4,100,30.09,2.0,Calm,Calm,-,N/A,,Mostly Cloudy,0,2012-11-20 09:34:00
3:35 AM,37.4,37.4,100,30.09,1.5,Calm,Calm,-,N/A,,Mostly Cloudy,0,2012-11-20 09:35:00
3:36 AM,37.4,37.4,100,30.09,1.0,NW,3.5,-,N/A,,Mostly Cloudy,310,2012-11-20 09:36:00
3:38 AM,37.4,37.4,100,30.09,0.8,WNW,3.5,-,N/A,,Mostly Cloudy,290,2012-11-20 09:38:00
3:41 AM,37.4,35.6,93,30.09,0.5,West,3.5,-,N/A,Fog,Fog,280,2012-11-20 09:41:00
3:47 AM,35.6,35.6,100,30.09,0.8,Calm,Calm,-,N/A,,Mostly Cloudy,0,2012-11-20 09:47:00
3:51 AM,35.6,35.6,100,30.09,1.0,Calm,Calm,-,N/A,,Mostly Cloudy,0,2012-11-20 09:51:00
3:53 AM,35.6,35.6,100,30.09,1.2,Calm,Calm,-,N/A,,Mostly Cloudy,0,2012-11-20 09:53:00
3:54 AM,35.6,35.6,100,30.09,1.5,Calm,Calm,-,N/A,,Mostly Cloudy,0,2012-11-20 09:54:00
3:55 AM,36.1,35.8,99,30.09,2.0,Calm,Calm,-,N/A,,Mostly Cloudy,0,2012-11-20 09:55:00
3:56 AM,35.6,35.6,100,30.09,2.5,Calm,Calm,-,N/A,,Mostly Cloudy,0,2012-11-20 09:56:00
3:57 AM,35.6,35.6,100,30.09,3.0,Calm,Calm,-,N/A,,Mostly Cloudy,0,2012-11-20 09:57:00
4:52 AM,35.6,35.6,100,30.10,2.5,WNW,3.5,-,N/A,,Overcast,290,2012-11-20 10:52:00
4:53 AM,35.6,35.6,100,30.09,2.0,WNW,3.5,-,N/A,,Overcast,290,2012-11-20 10:53:00
4:54 AM,35.6,35.6,100,30.10,1.8,WNW,3.5,-,N/A,,Overcast,290,2012-11-20 10:54:00
4:55 AM,36.0,35.2,97,30.10,1.5,WNW,3.5,-,N/A,,Overcast,300,2012-11-20 10:55:00
4:56 AM,35.6,35.6,100,30.10,1.2,WNW,3.5,-,N/A,,Overcast,300,2012-11-20 10:56:00
4:58 AM,35.6,33.8,93,30.10,1.0,WNW,3.5,-,N/A,,Overcast,300,2012-11-20 10:58:00
5:05 AM,33.8,33.8,100,30.10,1.2,Calm,Calm,-,N/A,,Overcast,0,2012-11-20 11:05:00
5:07 AM,33.8,33.8,100,30.10,1.5,Calm,Calm,-,N/A,,Overcast,0,2012-11-20 11:07:00
5:08 AM,33.8,33.8,100,30.10,1.8,Calm,Calm,-,N/A,,Overcast,0,2012-11-20 11:08:00
5:09 AM,33.8,33.8,100,30.10,2.0,Calm,Calm,-,N/A,,Overcast,0,2012-11-20 11:09:00
5:11 AM,33.8,33.8,100,30.10,2.5,Calm,Calm,-,N/A,,Overcast,0,2012-11-20 11:11:00
5:12 AM,33.8,33.8,100,30.10,3.0,Calm,Calm,-,N/A,,Overcast,0,2012-11-20 11:12:00
5:26 AM,33.8,33.8,100,30.11,2.5,WNW,3.5,-,N/A,,Overcast,290,2012-11-20 11:26:00
5:37 AM,33.8,32.0,93,30.11,2.0,Calm,Calm,-,N/A,,Overcast,0,2012-11-20 11:37:00
5:48 AM,33.8,33.8,100,30.12,2.0,WNW,3.5,-,N/A,,Mostly Cloudy,300,2012-11-20 11:48:00
5:49 AM,33.8,33.8,100,30.11,1.8,WNW,3.5,-,N/A,,Mostly Cloudy,300,2012-11-20 11:49:00
5:50 AM,33.8,33.8,100,30.11,1.5,Calm,Calm,-,N/A,,Scattered Clouds,0,2012-11-20 11:50:00
5:51 AM,33.8,33.8,100,30.11,1.2,Calm,Calm,-,N/A,,Scattered Clouds,0,2012-11-20 11:51:00
5:52 AM,33.8,32.0,93,30.11,1.0,Calm,Calm,-,N/A,,Mist,0,2012-11-20 11:52:00
5:54 AM,33.8,32.0,93,30.12,0.8,Calm,Calm,-,N/A,,Mist,0,2012-11-20 11:54:00
5:55 AM,32.9,32.2,97,30.12,0.8,Calm,Calm,-,N/A,,Mist,0,2012-11-20 11:55:00
5:57 AM,32.0,32.0,100,30.12,0.5,Calm,Calm,-,N/A,Fog,Fog,0,2012-11-20 11:57:00
6:00 AM,32.0,32.0,100,30.09,3.0,NW,2.3,-,N/A,,Clear,320,2012-11-20 12:00:00
6:55 AM,30.2,30.2,100,30.14,0.8,West,3.5,-,N/A,Fog,Light Freezing Fog,270,2012-11-20 12:55:00
8:55 AM,37.4,37.4,100,30.13,3.0,Calm,Calm,-,N/A,,Clear,0,2012-11-20 14:55:00
9:55 AM,46.4,42.8,87,30.14,10.0,Calm,Calm,-,N/A,,Clear,0,2012-11-20 15:55:00
10:55 AM,51.8,42.8,71,30.14,10.0,Variable,3.5,-,N/A,,Clear,0,2012-11-20 16:55:00
11:55 AM,55.4,42.8,63,30.12,10.0,WSW,5.8,-,N/A,,Clear,250,2012-11-20 17:55:00
12:55 PM,57.2,42.8,59,30.11,10.0,WNW,6.9,-,N/A,,Clear,290,2012-11-20 18:55:00
1:55 PM,57.2,42.8,59,30.11,10.0,WSW,8.1,-,N/A,,Clear,250,2012-11-20 19:55:00
2:55 PM,57.2,42.8,59,30.11,10.0,WNW,6.9,-,N/A,,Clear,290,2012-11-20 20:55:00
3:55 PM,53.6,41.0,62,30.12,10.0,West,3.5,-,N/A,,Clear,270,2012-11-20 21:55:00
4:55 PM,41.7,36.7,82,30.15,10.0,WNW,5.8,-,N/A,,Clear,290,2012-11-20 22:55:00
5:55 PM,40.8,37.8,89,30.16,10.0,WNW,8.1,-,N/A,,Clear,290,2012-11-20 23:55:00
6:55 PM,38.5,37.2,95,30.17,5.0,Calm,Calm,-,N/A,,Clear,0,2012-11-21 00:55:00
7:33 PM,33.8,32.0,93,30.17,2.5,Calm,Calm,-,N/A,,Clear,0,2012-11-21 01:33:00
7:35 PM,33.8,33.8,100,30.17,2.0,Calm,Calm,-,N/A,,Clear,0,2012-11-21 01:35:00
7:37 PM,33.8,33.8,100,30.17,1.8,Calm,Calm,-,N/A,,Clear,0,2012-11-21 01:37:00
7:38 PM,33.8,33.8,100,30.17,1.5,Calm,Calm,-,N/A,,Clear,0,2012-11-21 01:38:00
7:39 PM,33.8,33.8,100,30.17,1.2,Calm,Calm,-,N/A,,Clear,0,2012-11-21 01:39:00
7:40 PM,33.8,33.8,100,30.17,1.0,Calm,Calm,-,N/A,,Clear,0,2012-11-21 01:40:00
7:42 PM,33.8,33.8,100,30.17,0.8,Calm,Calm,-,N/A,,Clear,0,2012-11-21 01:42:00
7:45 PM,32.0,32.0,100,30.17,0.5,Calm,Calm,-,N/A,Fog,Fog,0,2012-11-21 01:45:00
7:48 PM,32.0,30.2,93,30.17,0.2,Calm,Calm,-,N/A,Fog,Fog,0,2012-11-21 01:48:00
7:53 PM,33.8,32.0,93,30.17,0.5,Calm,Calm,-,N/A,Fog,Fog,0,2012-11-21 01:53:00
7:55 PM,33.3,32.4,96,30.17,0.5,Calm,Calm,-,N/A,Fog,Fog,0,2012-11-21 01:55:00
7:57 PM,32.0,32.0,100,30.17,0.8,Calm,Calm,-,N/A,,Clear,0,2012-11-21 01:57:00
7:59 PM,32.0,32.0,100,30.17,1.0,Calm,Calm,-,N/A,,Clear,0,2012-11-21 01:59:00
8:01 PM,32.0,30.2,93,30.17,1.2,Calm,Calm,-,N/A,,Clear,0,2012-11-21 02:01:00
8:02 PM,32.0,30.2,93,30.17,1.0,Calm,Calm,-,N/A,,Clear,0,2012-11-21 02:02:00
8:07 PM,30.2,28.4,93,30.17,0.8,Calm,Calm,-,N/A,,Clear,0,2012-11-21 02:07:00
8:08 PM,30.2,28.4,93,30.17,1.0,Calm,Calm,-,N/A,,Clear,0,2012-11-21 02:08:00
8:10 PM,30.2,28.4,93,30.17,0.8,Calm,Calm,-,N/A,,Clear,0,2012-11-21 02:10:00
8:15 PM,30.2,30.2,100,30.17,0.5,Calm,Calm,-,N/A,Fog,Light Freezing Fog,0,2012-11-21 02:15:00
8:23 PM,28.4,28.4,100,30.17,0.2,Calm,Calm,-,N/A,Fog,Light Freezing Fog,0,2012-11-21 02:23:00
8:49 PM,30.2,28.4,93,30.16,0.5,Calm,Calm,-,N/A,Fog,Light Freezing Fog,0,2012-11-21 02:49:00
8:50 PM,30.2,30.2,100,30.16,0.8,Calm,Calm,-,N/A,,Clear,0,2012-11-21 02:50:00
8:51 PM,30.2,30.2,100,30.16,1.0,Calm,Calm,-,N/A,,Clear,0,2012-11-21 02:51:00
8:52 PM,30.2,30.2,100,30.16,1.2,Calm,Calm,-,N/A,,Clear,0,2012-11-21 02:52:00
8:53 PM,30.2,28.4,93,30.16,1.5,Calm,Calm,-,N/A,,Clear,0,2012-11-21 02:53:00
8:54 PM,30.2,28.4,93,30.16,2.0,Calm,Calm,-,N/A,,Clear,0,2012-11-21 02:54:00
8:55 PM,29.3,28.8,98,30.16,1.8,Calm,Calm,-,N/A,,Clear,0,2012-11-21 02:55:00
8:56 PM,28.4,28.4,100,30.16,1.2,Calm,Calm,-,N/A,,Clear,0,2012-11-21 02:56:00
8:58 PM,28.4,28.4,100,30.16,1.0,SE,3.5,-,N/A,,Clear,130,2012-11-21 02:58:00
9:05 PM,30.2,28.4,93,30.16,0.8,Calm,Calm,-,N/A,,Clear,0,2012-11-21 03:05:00
9:07 PM,30.2,28.4,93,30.16,0.5,Calm,Calm,-,N/A,Fog,Light Freezing Fog,0,2012-11-21 03:07:00
9:10 PM,28.4,28.4,100,30.16,0.2,Calm,Calm,-,N/A,Fog,Light Freezing Fog,0,2012-11-21 03:10:00
9:34 PM,28.4,28.4,100,30.16,0.5,Calm,Calm,-,N/A,Fog,Light Freezing Fog,0,2012-11-21 03:34:00
9:38 PM,30.2,28.4,93,30.17,0.8,Calm,Calm,-,N/A,,Clear,0,2012-11-21 03:38:00
9:40 PM,30.2,28.4,93,30.16,1.0,Calm,Calm,-,N/A,,Clear,0,2012-11-21 03:40:00
9:41 PM,30.2,28.4,93,30.16,1.5,Calm,Calm,-,N/A,,Clear,0,2012-11-21 03:41:00
9:42 PM,30.2,28.4,93,30.17,2.0,Calm,Calm,-,N/A,,Clear,0,2012-11-21 03:42:00
9:43 PM,30.2,28.4,93,30.17,3.0,Calm,Calm,-,N/A,,Clear,0,2012-11-21 03:43:00
9:47 PM,30.2,30.2,100,30.17,1.8,Calm,Calm,-,N/A,,Clear,0,2012-11-21 03:47:00
9:48 PM,30.2,30.2,100,30.17,1.2,Calm,Calm,-,N/A,,Clear,0,2012-11-21 03:48:00
9:49 PM,30.2,30.2,100,30.16,1.0,Calm,Calm,-,N/A,,Clear,0,2012-11-21 03:49:00
9:50 PM,30.2,30.2,100,30.16,0.8,Calm,Calm,-,N/A,,Clear,0,2012-11-21 03:50:00
9:51 PM,30.2,30.2,100,30.16,0.5,Calm,Calm,-,N/A,Fog,Light Freezing Fog,0,2012-11-21 03:51:00
9:54 PM,28.4,28.4,100,30.16,0.2,Calm,Calm,-,N/A,Fog,Light Freezing Fog,0,2012-11-21 03:54:00
9:55 PM,28.8,28.0,97,30.16,0.2,Calm,Calm,-,N/A,Fog,Light Freezing Fog,0,2012-11-21 03:55:00
10:06 PM,28.4,28.4,100,30.16,0.5,Calm,Calm,-,N/A,Fog,Light Freezing Fog,0,2012-11-21 04:06:00
10:09 PM,28.4,28.4,100,30.16,0.8,Calm,Calm,-,N/A,,Clear,0,2012-11-21 04:09:00
10:12 PM,28.4,28.4,100,30.16,0.5,Calm,Calm,-,N/A,Fog,Light Freezing Fog,0,2012-11-21 04:12:00
10:15 PM,28.4,28.4,100,30.16,0.2,Calm,Calm,-,N/A,Fog,Light Freezing Fog,0,2012-11-21 04:15:00
10:42 PM,28.4,26.6,93,30.16,0.5,ESE,3.5,-,N/A,Fog,Light Freezing Fog,120,2012-11-21 04:42:00
10:48 PM,28.4,28.4,100,30.16,0.8,ESE,4.6,-,N/A,,Clear,120,2012-11-21 04:48:00
10:52 PM,28.4,26.6,93,30.16,0.5,ESE,3.5,-,N/A,Fog,Light Freezing Fog,120,2012-11-21 04:52:00
10:55 PM,28.4,27.7,97,30.16,0.5,ESE,3.5,-,N/A,Fog,Light Freezing Fog,120,2012-11-21 04:55:00
10:59 PM,28.4,28.4,100,30.16,0.2,Calm,Calm,-,N/A,Fog,Light Freezing Fog,0,2012-11-21 04:59:00
11:55 PM,27.5,26.8,97,30.16,0.2,Calm,Calm,-,N/A,Fog,Light Freezing Fog,0,2012-11-21 05:55:00
11:58 PM,26.6,26.6,100,30.16,0.5,Calm,Calm,-,N/A,Fog,Light Freezing Fog,0,2012-11-21 05:58:00